Stations météo

réclame
Mon MeteoGroup
St-Hubert, Belgique (6476): Température de l'air & dewpoint: 26.05.2020 01:00:00 - 01.06.2020 01:00:00 (CEST)St-Hubert, Belgique (6476): Vitesse du vent & gusts: 26.05.2020 01:00:00 - 01.06.2020 01:00:00 (CEST)St-Hubert, Belgique (6476): Direction du vent: 26.05.2020 01:00:00 - 01.06.2020 01:00:00 (CEST)St-Hubert, Belgique (6476): reduced air pressure: 26.05.2020 01:00:00 - 01.06.2020 01:00:00 (CEST)St-Hubert, Belgique (6476): visibility: 26.05.2020 01:00:00 - 01.06.2020 01:00:00 (CEST)
Date & Time tt [°C] td [°C] ff [km/h] ff [knt] fx [km/h] fx [knt] dd ppp [hPa] vv [km]
01.06.2020 01:00:00 - - - - - - - - -
01.06.2020 00:00:00 11,9 4,5 18 10 29 16 E 1021,5 45
31.05.2020 23:00:00 11,4 4,7 14 8 - - E 1021,5 45
31.05.2020 22:00:00 11,9 4,4 11 6 22 12 E 1021,1 45
31.05.2020 21:00:00 15,3 3,6 14 8 29 16 E 1020,0 45
31.05.2020 20:00:00 17,0 2,9 14 8 - - E 1019,2 35
31.05.2020 19:00:00 17,5 4,8 11 6 29 16 E 1018,9 40
31.05.2020 18:00:00 18,2 3,1 14 8 32 18 E 1018,8 40
31.05.2020 17:00:00 18,5 0,7 18 10 - - E 1019,0 35
31.05.2020 16:00:00 18,1 1,0 11 6 40 21 ENE 1019,2 40
31.05.2020 15:00:00 17,3 2,0 14 8 32 18 E 1019,5 35
31.05.2020 14:00:00 15,9 2,0 14 8 - - - 1020,2 35
31.05.2020 13:00:00 16,6 2,3 14 8 36 19 ENE 1020,2 30
31.05.2020 12:00:00 15,1 3,0 14 8 29 16 NE 1020,9 40
31.05.2020 11:00:00 14,7 3,8 11 6 - - NE 1021,1 29
31.05.2020 10:00:00 14,0 3,3 14 8 25 14 NE 1021,3 40
31.05.2020 09:00:00 12,5 3,4 7 4 14 8 NE 1021,7 35
31.05.2020 08:00:00 11,3 3,1 7 4 - - ENE 1021,9 45
31.05.2020 07:00:00 8,9 2,0 11 6 18 10 ENE 1022,5 45
31.05.2020 06:00:00 4,7 1,5 11 6 14 8 ENE 1023,4 45
31.05.2020 05:00:00 7,7 1,3 11 6 - - NE 1022,5 45
31.05.2020 04:00:00 9,4 1,8 11 6 22 12 E 1022,0 45
31.05.2020 03:00:00 9,9 2,6 14 8 25 14 E 1022,1 45
31.05.2020 02:00:00 10,0 2,4 14 8 - - E 1022,3 45
31.05.2020 01:00:00 10,3 2,9 14 8 22 12 E 1022,3 50
31.05.2020 00:00:00 10,7 3,9 11 6 22 12 E 1022,2 45
30.05.2020 23:00:00 11,1 5,0 11 6 - - E 1021,8 50
30.05.2020 22:00:00 13,0 1,7 11 6 22 12 ENE 1021,0 45
30.05.2020 21:00:00 15,8 4,1 14 8 25 14 E 1019,9 45
30.05.2020 20:00:00 17,3 3,4 14 8 - - E 1019,6 35
30.05.2020 19:00:00 18,5 3,6 18 10 32 18 E 1019,3 40
30.05.2020 18:00:00 19,0 4,3 18 10 32 18 E 1019,6 29
30.05.2020 17:00:00 19,1 2,0 14 8 - - NE 1019,9 30
30.05.2020 16:00:00 19,4 2,8 18 10 40 21 E 1020,1 30
30.05.2020 15:00:00 18,2 3,4 11 6 36 19 - 1020,7 40
30.05.2020 14:00:00 17,5 2,6 14 8 - - E 1021,5 30
30.05.2020 13:00:00 17,1 1,6 22 12 40 21 E 1022,0 35
30.05.2020 12:00:00 16,7 2,9 22 12 36 19 E 1022,2 30
30.05.2020 11:00:00 15,7 1,9 18 10 - - E 1022,6 35
30.05.2020 10:00:00 14,2 3,8 11 6 22 12 ENE 1022,9 35
30.05.2020 09:00:00 12,7 3,3 11 6 22 12 ENE 1023,4 40
30.05.2020 08:00:00 11,0 2,5 14 8 - - ENE 1023,6 40
30.05.2020 07:00:00 9,8 1,5 11 6 18 10 ENE 1023,7 40
30.05.2020 06:00:00 8,6 1,5 14 8 25 14 ENE 1024,1 45
30.05.2020 05:00:00 8,4 2,2 18 10 - - E 1024,2 45
30.05.2020 04:00:00 10,0 1,7 14 8 22 12 ENE 1024,1 45
30.05.2020 03:00:00 9,8 2,2 14 8 22 12 E 1024,2 45
30.05.2020 02:00:00 9,2 4,2 14 8 - - E 1024,3 45
30.05.2020 01:00:00 9,6 2,3 11 6 14 8 ENE 1024,2 40
30.05.2020 00:00:00 8,6 3,2 11 6 14 8 ENE 1024,6 45
29.05.2020 23:00:00 12,8 2,4 11 6 - - ENE 1023,5 45
29.05.2020 22:00:00 12,5 5,1 7 4 14 8 ENE 1023,3 45
29.05.2020 21:00:00 15,7 3,4 11 6 22 12 E 1022,5 40
29.05.2020 20:00:00 17,7 2,7 11 6 - - E 1022,1 40
29.05.2020 19:00:00 18,8 0,7 14 8 25 14 E 1022,2 35
29.05.2020 18:00:00 19,0 1,4 7 4 29 16 - 1022,5 30
29.05.2020 17:00:00 18,9 1,9 18 10 - - ENE 1023,0 30
29.05.2020 16:00:00 18,8 2,4 18 10 32 18 ENE 1023,8 30
29.05.2020 15:00:00 18,5 4,6 14 8 29 16 NE 1024,3 30
29.05.2020 14:00:00 17,0 2,6 14 8 - - NE 1025,5 30
29.05.2020 13:00:00 16,2 2,6 18 10 32 18 ENE 1026,3 35
29.05.2020 12:00:00 15,5 2,5 14 8 32 18 - 1027,0 35
29.05.2020 11:00:00 14,7 2,4 18 10 - - ESE 1027,3 28
29.05.2020 10:00:00 13,9 3,3 14 8 25 14 E 1027,6 30
29.05.2020 09:00:00 12,4 2,6 14 8 25 14 E 1027,8 30
29.05.2020 08:00:00 10,2 2,5 11 6 - - E 1028,5 35
29.05.2020 07:00:00 8,4 1,3 11 6 18 10 ENE 1029,0 40
29.05.2020 06:00:00 7,1 0,8 14 8 22 12 ENE 1029,2 45
29.05.2020 05:00:00 7,4 0,9 14 8 - - ENE 1029,3 45
29.05.2020 04:00:00 7,1 1,3 14 8 22 12 ENE 1029,6 45
29.05.2020 03:00:00 8,6 0,8 14 8 25 14 ENE 1029,6 45
29.05.2020 02:00:00 9,5 0,6 14 8 - - ENE 1029,5 45
29.05.2020 01:00:00 10,6 0,6 11 6 18 10 NE 1029,6 45
29.05.2020 00:00:00 10,5 1,0 11 6 14 8 ENE 1029,7 50
28.05.2020 23:00:00 8,5 2,3 11 6 - - ENE 1030,2 45
28.05.2020 22:00:00 11,6 2,6 7 4 18 10 ENE 1029,3 45
28.05.2020 21:00:00 15,1 0,9 11 6 32 18 NNE 1028,4 45
28.05.2020 20:00:00 16,6 -1,3 18 10 - - ENE 1028,2 40
28.05.2020 19:00:00 17,6 -2,3 18 10 36 19 ENE 1028,2 28
28.05.2020 18:00:00 18,1 -2,2 14 8 36 19 ENE 1028,3 35
28.05.2020 17:00:00 18,3 -1,6 18 10 - - NE 1028,5 40
28.05.2020 16:00:00 18,4 1,5 18 10 36 19 ENE 1028,9 30
28.05.2020 15:00:00 18,0 0,3 18 10 36 19 NE 1029,4 35
28.05.2020 14:00:00 17,4 -0,5 22 12 - - NE 1030,0 30
28.05.2020 13:00:00 16,3 1,5 22 12 36 19 NNE 1030,7 30
28.05.2020 12:00:00 15,4 4,2 18 10 43 23 NE 1031,0 35
28.05.2020 11:00:00 14,6 5,0 22 12 - - ENE 1031,3 30
28.05.2020 10:00:00 13,2 4,7 22 12 36 19 ENE 1031,6 30
28.05.2020 09:00:00 11,3 6,8 18 10 32 18 NE 1032,2 29
28.05.2020 08:00:00 10,1 7,3 14 8 - - NE 1032,1 24
28.05.2020 07:00:00 8,9 7,2 11 6 18 10 ENE 1032,4 14
28.05.2020 06:00:00 7,8 6,2 11 6 18 10 NE 1032,7 14
28.05.2020 05:00:00 8,4 6,1 14 8 - - NE 1032,5 28
28.05.2020 04:00:00 9,0 6,0 18 10 22 12 NE 1032,5 35
28.05.2020 03:00:00 10,0 4,6 14 8 22 12 NNE 1032,4 45
28.05.2020 02:00:00 11,0 4,3 14 8 - - NE 1032,6 50
28.05.2020 01:00:00 12,5 4,6 18 10 25 14 NNE 1032,6 45
28.05.2020 00:00:00 13,2 6,0 14 8 29 16 NNE 1032,5 45
27.05.2020 23:00:00 14,3 7,1 18 10 - - N 1032,3 45
27.05.2020 22:00:00 15,6 7,3 14 8 22 12 N 1031,7 45
27.05.2020 21:00:00 17,3 8,2 11 6 29 16 N 1031,0 30
27.05.2020 20:00:00 18,1 8,1 18 10 - - NNW 1030,9 24
27.05.2020 19:00:00 20,0 8,3 14 8 29 16 NNE 1030,5 30
27.05.2020 18:00:00 20,2 7,3 18 10 29 16 NNE 1030,7 28
27.05.2020 17:00:00 20,0 6,4 14 8 - - NNE 1030,9 29
27.05.2020 16:00:00 19,8 6,2 11 6 25 14 NNE 1031,3 30
27.05.2020 15:00:00 20,1 4,8 7 4 29 16 N 1031,6 28
27.05.2020 14:00:00 19,6 3,8 11 6 - - NE 1032,0 27
27.05.2020 13:00:00 18,5 5,6 11 6 29 16 N 1032,6 26
27.05.2020 12:00:00 17,9 7,2 11 6 29 16 N 1032,9 27
27.05.2020 11:00:00 17,6 6,6 7 4 - - - 1033,1 28
27.05.2020 10:00:00 16,5 5,8 4 2 11 6 - 1033,5 28
27.05.2020 09:00:00 14,6 5,7 4 2 7 4 - 1034,0 35
27.05.2020 08:00:00 13,5 6,1 4 2 - - S 1034,2 35
27.05.2020 07:00:00 11,1 5,3 4 2 7 4 SSE 1034,6 40
27.05.2020 06:00:00 10,2 4,0 4 2 11 6 SE 1034,7 40
27.05.2020 05:00:00 10,1 3,9 7 4 - - ESE 1034,5 45
27.05.2020 04:00:00 7,7 4,8 11 6 14 8 ENE 1035,2 40
27.05.2020 03:00:00 11,3 2,8 7 4 18 10 ENE 1034,7 45
27.05.2020 02:00:00 7,5 3,0 11 6 - - ENE 1035,7 45
27.05.2020 01:00:00 8,9 3,3 14 8 18 10 ENE 1035,6 45
27.05.2020 00:00:00 8,7 4,4 11 6 14 8 ENE 1035,7 40
26.05.2020 23:00:00 9,6 4,2 7 4 - - ENE 1035,7 45
26.05.2020 22:00:00 13,9 3,1 7 4 18 10 NE 1034,4 40
26.05.2020 21:00:00 16,1 3,7 14 8 25 14 NNE 1033,6 40
26.05.2020 20:00:00 17,7 3,2 14 8 - - NNE 1033,2 30
26.05.2020 19:00:00 18,7 4,3 18 10 32 18 NNE 1033,0 35
26.05.2020 18:00:00 19,0 3,0 18 10 36 19 NNE 1033,0 30
26.05.2020 17:00:00 18,8 2,2 14 8 - - N 1033,2 29
26.05.2020 16:00:00 18,9 3,4 18 10 43 23 N 1033,5 30
26.05.2020 15:00:00 18,3 2,5 22 12 32 18 NNE 1033,7 28
26.05.2020 14:00:00 18,0 2,1 14 8 - - N 1034,0 30
26.05.2020 13:00:00 16,9 2,5 14 8 32 18 NNE 1034,5 30
26.05.2020 12:00:00 16,4 5,0 14 8 32 18 N 1034,6 35
26.05.2020 11:00:00 15,2 5,1 22 12 - - NNE 1035,0 35
26.05.2020 10:00:00 14,1 5,4 22 12 32 18 NNE 1035,2 28
26.05.2020 09:00:00 12,7 8,1 11 6 18 10 NE 1035,2 19
26.05.2020 08:00:00 10,6 8,0 4 2 - - NE 1035,5 18
26.05.2020 07:00:00 8,9 7,6 7 4 11 6 ENE 1035,6 17
26.05.2020 06:00:00 6,2 5,2 7 4 14 8 ENE 1036,1 11
26.05.2020 05:00:00 7,0 5,4 11 6 - - ENE 1035,5 30
26.05.2020 04:00:00 5,6 4,6 11 6 14 8 ENE 1036,1 28
26.05.2020 03:00:00 6,3 5,2 11 6 14 8 ENE 1036,0 35
26.05.2020 02:00:00 7,9 6,1 11 6 - - ENE 1035,9 35
26.05.2020 01:00:00 7,8 6,0 7 4 11 6 ENE 1035,9 30

tt = Température de l'air
td = dewpoint
ff = Vitesse du vent
fx = gusts
dd = Direction du vent
ppp = reduced air pressure
vv = visibility

stations d'obs. à proximité